This is the latest recevied weather packets stored in our database for station/object HS6PNA-1. If no packets are shown the sender has not sent any weather packets the latest 10 day(s).
| Time | Temp. | Humidity | Pressure | Rain* | Wind** | Luminosity | Snow |
|---|---|---|---|---|---|---|---|
| 1778049224 | 41.11° C | 36% | 1002 hPa | - | - | 431 W/m² | - |
| 1778048299 | 40.56° C | 37% | 1002 hPa | - | - | 385 W/m² | - |
| 1778047374 | 39.44° C | 37% | 1003 hPa | - | - | 311 W/m² | - |
| 1778046450 | 40.56° C | 37% | 1003 hPa | - | - | 269 W/m² | - |
| 1778045526 | 40.56° C | 37% | 1003 hPa | - | - | 431 W/m² | - |
| 1778044601 | 40° C | 39% | 1004 hPa | - | - | 386 W/m² | - |
| 1778043677 | 38.89° C | 39% | 1004 hPa | - | - | 394 W/m² | - |
| 1778042752 | 38.89° C | 41% | 1004 hPa | - | - | 431 W/m² | - |
| 1778041828 | 38.33° C | 41% | 1004 hPa | - | - | 338 W/m² | - |
| 1778040903 | 38.33° C | 45% | 1004 hPa | - | - | 364 W/m² | - |
| 1778039979 | 37.22° C | 45% | 1004 hPa | - | - | 380 W/m² | - |
| 1778039054 | 37.22° C | 46% | 1005 hPa | - | - | 232 W/m² | - |
| 1778038130 | 36.67° C | 50% | 1005 hPa | - | - | 293 W/m² | - |
| 1778037205 | 36.11° C | 49% | 1005 hPa | - | - | 279 W/m² | - |
| 1778036280 | 36.11° C | 49% | 1005 hPa | - | - | 219 W/m² | - |
| 1778035355 | 35.56° C | 52% | 1005 hPa | - | - | 202 W/m² | - |
| 1778034431 | 35° C | 52% | 1005 hPa | - | - | 183 W/m² | - |
| 1778033524 | 33.89° C | 58% | 1005 hPa | - | - | 137 W/m² | - |
| 1778032599 | 33.89° C | 58% | 1005 hPa | - | - | 126 W/m² | - |
| 1778031674 | 33.33° C | 60% | 1005 hPa | - | - | 116 W/m² | - |
| 1778030750 | 32.78° C | 62% | 1005 hPa | - | - | 61 W/m² | - |
| 1778029825 | 32.22° C | 64% | 1005 hPa | - | - | 54 W/m² | - |
| 1778028901 | 32.22° C | 66% | 1005 hPa | - | - | 42 W/m² | - |
| 1778027977 | 31.67° C | 67% | 1005 hPa | - | - | 39 W/m² | - |
| 1778027052 | 31.67° C | 66% | 1005 hPa | - | - | 25 W/m² | - |
* Rain since midnight (hover to see other rain measurements)
** Current wind speed in m/s (hover to see current wind gust speed)